DW2659 Weather Reports


Display with metric or nautical units.
time (UTC)temp
F
wind
direction
speed
MPH
gust
MPH
rain 1hr
in
rain 24hr
in
rain mn
in
humidity
%
barometer
mb
20260904171904 96 51 2.0 3.0 0.00 0.00 0.00 51 1016.7
20260904171404 96 53 2.0 3.0 0.00 0.00 0.00 52 1016.8
20260904170905 96 23 1.0 5.0 0.00 0.00 0.00 51 1017.1
20260904170403 96 74 1.0 3.0 0.00 0.00 0.00 52 1017.1
20260904165904 95 355 1.0 3.0 0.00 0.00 0.00 54 1017.2
20260904164904 95 358 2.0 3.0 0.00 0.00 0.00 54 1017.2
20260904163905 94 355 2.0 3.0 0.00 0.00 0.00 54 1017.3
20260904163404 94 23 1.0 3.0 0.00 0.00 0.00 55 1017.3
20260904162904 94 13 1.0 5.0 0.00 0.00 0.00 55 1017.5
20260904162404 94 256 3.0 5.0 0.00 0.00 0.00 53 1017.5
20260904161904 94 10 2.0 3.0 0.00 0.00 0.00 56 1017.5
20260904161402 94 119 2.0 3.0 0.00 0.00 0.00 54 1017.5
20260904160903 93 68 1.0 3.0 0.00 0.00 0.00 58 1017.5
20260904160402 93 153 2.0 3.0 0.00 0.00 0.00 56 1017.5
20260904155903 93 87 2.0 3.0 0.00 0.00 0.00 54 1017.6
20260904155404 93 97 2.0 3.0 0.00 0.00 0.00 55 1017.6
20260904154902 92 355 1.0 3.0 0.00 0.00 0.00 55 1017.6
20260904154402 91 259 2.0 3.0 0.00 0.00 0.00 57 1017.6
20260904153402 91 103 3.0 6.0 0.00 0.00 0.00 57 1017.6
20260904151902 89 44 1.0 3.0 0.00 0.00 0.00 64 1017.7
20260904150403 89 97 4.0 7.0 0.00 0.00 0.00 62 1017.5
20260904145902 89 249 3.0 6.0 0.00 0.00 0.00 61 1017.4
20260904145403 89 249 1.0 2.0 0.00 0.00 0.00 63 1017.4
20260904144903 89 131 4.0 6.0 0.00 0.00 0.00 63 1017.4
20260904144402 88 105 3.0 5.0 0.00 0.00 0.00 63 1017.4
20260904143904 88 180 3.0 6.0 0.00 0.00 0.00 64 1017.4
20260904143403 88 115 2.0 5.0 0.00 0.00 0.00 64 1017.4
20260904142902 88 129 3.0 6.0 0.00 0.00 0.00 64 1017.5
20260904142402 87 134 4.0 6.0 0.00 0.00 0.00 64 1017.5
20260904141903 87 113 3.0 6.0 0.00 0.00 0.00 66 1017.5
20260904141402 87 130 4.0 6.0 0.00 0.00 0.00 65 1017.3
20260904140404 87 210 4.0 5.0 0.00 0.00 0.00 64 1017.3
20260904135903 87 144 2.0 5.0 0.00 0.00 0.00 67 1017.5
20260904134904 86 136 2.0 6.0 0.00 0.00 0.00 68 1017.3
20260904134402 85 180 2.0 5.0 0.00 0.00 0.00 68 1017.5
20260904133903 85 125 2.0 6.0 0.00 0.00 0.00 70 1017.5
20260904133404 84 120 2.0 5.0 0.00 0.00 0.00 71 1017.5
20260904132902 84 184 3.0 6.0 0.00 0.00 0.00 71 1017.4
20260904132402 83 141 1.0 5.0 0.00 0.00 0.00 74 1017.4
20260904131904 82 140 1.0 5.0 0.00 0.00 0.00 75 1017.4
20260904131402 81 163 3.0 5.0 0.00 0.00 0.00 78 1017.6
20260904130902 80 226 1.0 5.0 0.00 0.00 0.00 81 1017.6
20260904130404 79 230 3.0 5.0 0.00 0.00 0.00 81 1017.6
20260904125902 78 168 1.0 3.0 0.00 0.00 0.00 85 1017.4
20260904125402 77 205 0.0 2.0 0.00 0.00 0.00 87 1017.4
20260904124904 77 196 2.0 3.0 0.00 0.00 0.00 88 1017.4
20260904124402 76 240 2.0 3.0 0.00 0.00 0.00 91 1017.4
20260904123404 74 355 1.0 1.0 0.00 0.00 0.00 94 1017.2
20260904122903 74 355 0.0 1.0 0.00 0.00 0.00 94 1017.2
20260904121904 74 355 0.0 0.0 0.00 0.00 0.00 93 1017.2
20260904120903 73 355 0.0 0.0 0.00 0.00 0.00 93 1017.3
20260904120404 73 355 0.0 0.0 0.00 0.00 0.00 93 1017.3
20260904115402 73 355 0.0 0.0 0.00 0.00 0.00 93 1017.1
20260904114403 73 355 0.0 0.0 0.00 0.00 0.00 93 1017.0
20260904113903 73 355 0.0 0.0 0.00 0.00 0.00 93 1017.0
20260904113404 73 355 0.0 0.0 0.00 0.00 0.00 93 1017.0
20260904112903 73 355 0.0 0.0 0.00 0.00 0.00 93 1017.0
20260904112403 73 355 0.0 0.0 0.00 0.00 0.00 92 1016.8
20260904111904 73 355 0.0 0.0 0.00 0.00 0.00 92 1016.8
20260904111403 73 355 0.0 0.0 0.00 0.00 0.00 92 1016.8
20260904110903 73 355 0.0 0.0 0.00 0.00 0.00 92 1016.5
20260904105904 73 355 0.0 0.0 0.00 0.00 0.00 92 1016.5
20260904105402 73 355 0.0 0.0 0.00 0.00 0.00 92 1016.5
20260904104903 73 355 0.0 0.0 0.00 0.00 0.00 92 1016.5
20260904104404 73 355 0.0 0.0 0.00 0.00 0.00 92 1016.5
20260904103403 73 355 0.0 0.0 0.00 0.00 0.00 92 1016.4
20260904101902 73 355 0.0 0.0 0.00 0.00 0.00 92 1016.3
20260904101404 73 355 0.0 0.0 0.00 0.00 0.00 92 1016.4
20260904100903 73 355 0.0 0.0 0.00 0.00 0.00 92 1016.4
20260904100402 73 355 0.0 0.0 0.00 0.00 0.00 92 1016.4
20260904095904 73 355 0.0 0.0 0.00 0.00 0.00 92 1016.2
20260904095402 73 355 0.0 0.0 0.00 0.00 0.00 92 1016.2
20260904094902 74 355 0.0 0.0 0.00 0.00 0.00 92 1016.2
20260904094404 74 355 0.0 0.0 0.00 0.00 0.00 92 1016.0
20260904093902 74 355 0.0 0.0 0.00 0.00 0.00 92 1016.0
20260904093403 74 355 0.0 0.0 0.00 0.00 0.00 92 1016.0
20260904092902 74 355 0.0 0.0 0.00 0.00 0.00 92 1016.0
20260904092404 74 355 0.0 0.0 0.00 0.00 0.00 92 1016.0
20260904091902 74 355 0.0 0.0 0.00 0.00 0.00 92 1016.0
20260904091402 74 355 0.0 0.0 0.00 0.00 0.00 92 1016.0
20260904090905 74 355 0.0 0.0 0.00 0.00 0.00 92 1016.0
20260904090403 74 355 0.0 0.0 0.00 0.00 0.00 91 1016.0
20260904085903 74 355 0.0 0.0 0.00 0.00 0.00 91 1015.8
20260904085404 74 355 0.0 0.0 0.00 0.00 0.00 92 1015.8
20260904084903 74 355 0.0 0.0 0.00 0.00 0.00 91 1015.8
20260904083904 74 355 0.0 0.0 0.00 0.00 0.00 91 1015.9
20260904083403 74 355 0.0 0.0 0.00 0.00 0.00 91 1015.9
20260904082903 74 355 0.0 0.0 0.00 0.00 0.00 91 1015.9
20260904082404 74 355 0.0 0.0 0.00 0.00 0.00 91 1015.9
20260904081903 74 355 0.0 1.0 0.00 0.00 0.00 92 1015.9
20260904081403 74 355 0.0 1.0 0.00 0.00 0.00 91 1015.8
20260904080403 74 355 1.0 2.0 0.00 0.00 0.00 91 1015.8
20260904075404 74 355 0.0 1.0 0.00 0.00 0.00 91 1015.7
20260904074903 74 355 0.0 1.0 0.00 0.00 0.00 90 1015.7
20260904073403 74 355 0.0 1.0 0.00 0.00 0.00 90 1015.7
20260904072902 74 355 0.0 0.0 0.00 0.00 0.00 90 1015.7
20260904071903 74 355 0.0 0.0 0.00 0.00 0.00 90 1015.6
20260904071403 74 355 0.0 0.0 0.00 0.00 0.00 90 1015.6
20260904070903 74 355 0.0 0.0 0.00 0.00 0.00 90 1015.6
20260904070404 74 355 0.0 0.0 0.00 0.00 0.00 90 1015.6
20260904065903 74 355 0.0 1.0 0.00 0.00 0.00 90 1015.6
20260904065402 74 355 1.0 2.0 0.00 0.00 0.00 90 1015.6
20260904064904 74 355 0.0 0.0 0.00 0.00 0.00 89 1015.6
20260904064403 74 355 0.0 0.0 0.00 0.00 0.00 89 1015.7
20260904063404 75 355 0.0 1.0 0.00 0.00 0.00 89 1015.7
20260904062902 75 355 0.0 0.0 0.00 0.00 0.00 89 1015.8
20260904062403 75 355 0.0 1.0 0.00 0.00 0.00 89 1015.8
20260904061403 75 355 0.0 1.0 0.00 0.00 0.00 89 1015.9
20260904060405 75 355 0.0 0.0 0.00 0.00 0.00 89 1015.9
20260904055903 75 355 0.0 0.0 0.00 0.00 0.00 89 1016.1
20260904055403 75 355 0.0 0.0 0.00 0.00 0.00 88 1016.1
20260904054905 75 355 0.0 0.0 0.00 0.00 0.00 88 1016.1
20260904054403 75 355 0.0 0.0 0.00 0.00 0.00 88 1016.1
20260904053902 75 355 0.0 0.0 0.00 0.00 0.00 88 1016.1
20260904053404 75 355 0.0 0.0 0.00 0.00 0.00 88 1016.1
20260904052903 75 355 0.0 0.0 0.00 0.00 0.00 88 1016.1
20260904052403 75 355 0.0 0.0 0.00 0.00 0.00 88 1016.1
20260904051904 76 355 0.0 1.0 0.00 0.00 0.00 88 1016.1
20260904051403 76 355 0.0 1.0 0.00 0.00 0.00 88 1016.1
20260904050903 76 355 1.0 1.0 0.00 0.00 0.00 88 1016.1
20260904050404 76 355 0.0 1.0 0.00 0.00 0.00 88 1016.1
20260904045903 76 355 1.0 2.0 0.00 0.00 0.00 88 1016.2
20260904045403 76 355 1.0 2.0 0.00 0.00 0.00 88 1016.2
20260904044905 76 355 1.0 1.0 0.00 0.00 0.00 87 1016.2
20260904044403 76 355 0.0 1.0 0.00 0.00 0.00 87 1016.3
20260904043405 76 355 1.0 1.0 0.00 0.00 0.00 87 1016.3
20260904042903 76 355 0.0 1.0 0.00 0.00 0.00 86 1016.5
20260904042403 76 355 0.0 0.0 0.00 0.00 0.00 86 1016.5
20260904041403 76 355 0.0 1.0 0.00 0.00 0.00 86 1016.5
20260904040903 76 355 0.0 0.0 0.00 0.00 0.00 85 1016.5
20260904040404 76 355 0.0 0.0 0.00 0.00 0.00 86 1016.5
20260904035903 76 355 0.0 0.0 0.00 0.00 0.00 86 1016.5
20260904034403 77 355 0.0 0.0 0.00 0.00 0.00 85 1016.6
20260904032903 77 355 0.0 1.0 0.00 0.00 0.00 85 1016.6
20260904032403 77 355 1.0 2.0 0.00 0.00 0.00 84 1016.6
20260904030903 77 355 0.0 1.0 0.00 0.00 0.00 84 1016.8
20260904030404 77 355 1.0 1.0 0.00 0.00 0.00 83 1016.8
20260904025903 77 355 0.0 1.0 0.00 0.00 0.00 83 1016.8
20260904025403 77 355 0.0 1.0 0.00 0.00 0.00 82 1016.8
20260904024904 78 355 0.0 1.0 0.00 0.00 0.00 82 1016.8
20260904024403 78 355 0.0 2.0 0.00 0.00 0.00 82 1016.8
20260904023405 78 355 1.0 2.0 0.00 0.00 0.00 81 1016.8
20260904022903 78 355 0.0 1.0 0.00 0.00 0.00 81 1016.5
20260904022403 78 355 0.0 0.0 0.00 0.00 0.00 81 1016.3
20260904021904 78 355 0.0 0.0 0.00 0.00 0.00 81 1016.3
20260904021403 78 355 0.0 1.0 0.00 0.00 0.00 81 1016.1
20260904020903 78 355 1.0 2.0 0.00 0.00 0.00 81 1016.1
20260904015903 78 355 0.0 0.0 0.00 0.00 0.00 79 1016.1
20260904015403 79 355 0.0 0.0 0.00 0.00 0.00 78 1016.1
20260904014905 79 355 0.0 0.0 0.00 0.00 0.00 78 1016.1
20260904014403 79 355 0.0 0.0 0.00 0.00 0.00 78 1015.9
20260904013903 79 355 0.0 0.0 0.00 0.00 0.00 77 1015.9
20260904013404 79 355 0.0 0.0 0.00 0.00 0.00 78 1015.9
20260904012903 79 355 0.0 0.0 0.00 0.00 0.00 77 1015.7
20260904012403 79 355 0.0 0.0 0.00 0.00 0.00 76 1015.7
20260904011904 80 355 0.0 0.0 0.00 0.00 0.00 76 1015.7
20260904011403 80 355 0.0 1.0 0.00 0.00 0.00 76 1015.7
20260904010903 80 355 0.0 0.0 0.00 0.00 0.00 75 1015.7
20260904010405 80 355 0.0 0.0 0.00 0.00 0.00 75 1015.7
20260904005904 80 355 0.0 0.0 0.00 0.00 0.00 74 1015.2
20260904005403 80 355 0.0 0.0 0.00 0.00 0.00 74 1015.2
20260904004905 80 355 0.0 0.0 0.00 0.00 0.00 74 1015.2
20260904004403 81 355 1.0 1.0 0.00 0.00 0.00 73 1014.9
20260904003904 81 355 0.0 1.0 0.00 0.00 0.00 73 1014.9
20260904002903 81 355 0.0 1.0 0.00 0.00 0.00 73 1014.9
20260904002403 82 355 0.0 1.0 0.00 0.00 0.00 73 1014.9
20260904001904 82 281 0.0 2.0 0.00 0.00 0.00 72 1014.9
20260904000903 83 245 0.0 1.0 0.00 0.00 0.00 71 1014.8
20260903235903 83 245 0.0 0.0 0.00 0.00 0.00 70 1014.5
20260903235403 84 245 0.0 0.0 0.00 0.00 0.00 70 1014.5
20260903233903 84 245 0.0 0.0 0.00 0.00 0.00 69 1014.5
20260903233405 84 245 0.0 0.0 0.00 0.00 0.00 68 1014.5
20260903232904 85 245 0.0 0.0 0.00 0.00 0.00 68 1014.5
20260903232403 85 245 0.0 0.0 0.00 0.00 0.00 69 1014.5
20260903231905 85 245 0.0 0.0 0.00 0.00 0.00 68 1014.5
20260903230903 85 245 0.0 0.0 0.00 0.00 0.00 68 1014.6
20260903230405 85 245 0.0 0.0 0.00 0.00 0.00 68 1014.6
20260903225903 86 245 0.0 0.0 0.00 0.00 0.00 67 1014.6
20260903225403 86 245 0.0 0.0 0.00 0.00 0.00 68 1014.6
20260903224905 86 245 0.0 0.0 0.00 0.00 0.00 68 1014.6
20260903224403 86 245 0.0 0.0 0.00 0.00 0.00 69 1014.7
20260903223903 87 245 0.0 0.0 0.00 0.00 0.00 67 1014.7
20260903223405 87 245 0.0 0.0 0.00 0.00 0.00 67 1014.7
20260903222903 87 245 0.0 1.0 0.00 0.00 0.00 67 1014.7
20260903222404 88 245 1.0 2.0 0.00 0.00 0.00 66 1014.7
20260903221404 89 245 0.0 1.0 0.00 0.00 0.00 65 1014.5
20260903220404 89 245 0.0 2.0 0.00 0.00 0.00 66 1014.5
20260903215905 90 245 0.0 2.0 0.00 0.00 0.00 67 1014.5
20260903214904 91 242 2.0 3.0 0.00 0.00 0.00 65 1014.5
20260903214404 91 274 0.0 1.0 0.00 0.00 0.00 63 1014.7
20260903213903 92 274 1.0 2.0 0.00 0.00 0.00 63 1014.7
20260903213404 94 274 0.0 2.0 0.00 0.00 0.00 55 1014.8
20260903212904 95 169 2.0 5.0 0.00 0.00 0.00 50 1014.8
20260903212404 96 85 2.0 3.0 0.00 0.00 0.00 49 1014.8
20260903211904 97 5 1.0 3.0 0.00 0.00 0.00 51 1014.8
20260903211405 97 5 2.0 6.0 0.00 0.00 0.00 48 1014.8
20260903210903 98 27 1.0 3.0 0.00 0.00 0.00 51 1014.8
20260903210404 99 30 0.0 1.0 0.00 0.00 0.00 49 1015.0
20260903205904 100 30 1.0 2.0 0.00 0.00 0.00 48 1014.8
20260903205404 101 30 0.0 1.0 0.00 0.00 0.00 46 1014.8
20260903204903 101 34 1.0 2.0 0.00 0.00 0.00 42 1014.8
20260903204404 100 0 2.0 3.0 0.00 0.00 0.00 40 1015.2
20260903203903 101 126 3.0 7.0 0.00 0.00 0.00 40 1015.2
20260903203404 102 46 0.0 2.0 0.00 0.00 0.00 43 1015.2
20260903202905 102 46 1.0 2.0 0.00 0.00 0.00 41 1015.2
20260903202404 101 129 1.0 5.0 0.00 0.00 0.00 41 1015.2
20260903201903 101 355 2.0 3.0 0.00 0.00 0.00 45 1015.2
20260903201406 101 17 1.0 2.0 0.00 0.00 0.00 43 1015.3
20260903200903 101 63 1.0 5.0 0.00 0.00 0.00 44 1015.3
20260903195404 100 98 1.0 3.0 0.00 0.00 0.00 46 1015.6
20260903194904 99 355 1.0 2.0 0.00 0.00 0.00 46 1015.6
20260903194404 98 49 0.0 2.0 0.00 0.00 0.00 49 1016.2
20260903193904 98 146 1.0 2.0 0.00 0.00 0.00 45 1016.2
20260903193404 97 78 1.0 3.0 0.00 0.00 0.00 47 1016.2
20260903192904 98 55 1.0 3.0 0.00 0.00 0.00 47 1016.2
20260903192405 98 49 1.0 3.0 0.00 0.00 0.00 48 1016.2
20260903191403 97 28 2.0 3.0 0.00 0.00 0.00 52 1016.2
20260903190905 96 44 1.0 2.0 0.00 0.00 0.00 50 1016.2
20260903190404 97 44 1.0 2.0 0.00 0.00 0.00 49 1016.2
20260903185904 97 51 1.0 3.0 0.00 0.00 0.00 47 1016.2
20260903185404 99 68 2.0 5.0 0.00 0.00 0.00 47 1016.2
20260903184404 100 333 1.0 3.0 0.00 0.00 0.00 45 1016.4
20260903183403 100 30 1.0 3.0 0.00 0.00 0.00 44 1016.4
20260903182904 101 267 3.0 5.0 0.00 0.00 0.00 42 1016.7
20260903181403 99 17 1.0 3.0 0.00 0.00 0.00 45 1016.7
20260903180905 98 41 1.0 3.0 0.00 0.00 0.00 46 1016.7
20260903180404 98 5 1.0 5.0 0.00 0.00 0.00 46 1016.8
20260903175904 99 244 3.0 5.0 0.00 0.00 0.00 45 1016.8
20260903175405 98 22 2.0 3.0 0.00 0.00 0.00 46 1016.8
20260903174904 98 291 1.0 3.0 0.00 0.00 0.00 47 1016.8
20260903174403 97 31 2.0 7.0 0.00 0.00 0.00 49 1017.1
20260903173905 97 19 1.0 3.0 0.00 0.00 0.00 51 1017.1
20260903173403 97 221 1.0 3.0 0.00 0.00 0.00 50 1017.1
20260903172904 98 247 1.0 3.0 0.00 0.00 0.00 47 1017.2
20260903172405 98 11 1.0 3.0 0.00 0.00 0.00 50 1017.3